[[{"header":{"parameterUnit":"m.s-1","parameterCategory":1,"la1":30.2991,"la2":30.254,"lo1":-89.0895,"lo2":-89.0444,"dy":0.0017,"dx":0.0017,"nx":28,"ny":28,"refTime":"2025-11-19T03:00:00:Z","depth":0,"parameterNumber":2,"parameterNumberName":"U-component_of_WINDS"},"data":[0,0,0,0,0,0,0,0,0,0,0,0,0,0,0,0,0,0,0,0,0,0,0,0,0,0,0,0,0,0,0,0,0,0,0,0,0,0,0,0,0,0,0,0,0,0,0,0,0,0,0,0,0,0,0,0,0,0,-0.0187,-0.0185,0,-0.0084,-0.0083,-0.0081,-0.0012,-0.0011,-0.0011,-0.001,0.0098,0.0101,0.0103,0,0,0,0,0,0,0,0,0,0,0,0,0,-0.0319,-0.0317,-0.0187,-0.0185,-0.0184,-0.0084,-0.0083,-0.0081,-0.0012,-0.0011,-0.0011,-0.001,0.0098,0.01,0.0103,0,0,0,0,0,0,0,0,0,0,0,0,0,-0.0243,-0.0316,-0.0187,-0.0138,-0.0132,-0.0084,-0.0083,-0.0081,-0.0012,-0.0011,-0.001,-0.001,0.0097,0.01,0.0104,0.0112,0,0,0.0115,0.0116,0,0,0,0,0,0,0,0,-0.0248,-0.0239,-0.0146,-0.0141,-0.0135,-0.006,-0.0089,-0.0016,-0.0012,-0.0057,-0.001,-0.0009,0.0045,0.0053,0.0071,0.0117,0.0121,0.0115,0.0117,0.0119,0.012,0,0,0,0,0,0,0,-0.0253,-0.0243,-0.0146,-0.0145,-0.0138,-0.0119,-0.0108,-0.0075,-0.0011,-0.0053,-0.0048,-0.0037,0.0049,0.0067,0.0074,0.0123,0.0115,0.0118,0.0121,0.0122,0.0182,0.0181,0,0,0,0,0,0,-0.0267,-0.0247,-0.0149,-0.0143,-0.0191,-0.0117,-0.0104,-0.0085,-0.0012,0.0,-0.0038,-0.0034,0.0061,0.007,0.0078,0.0093,0.0119,0.0122,0.0124,0.0182,0.0181,0.0181,0,0,0,0,0,0,-0.027,-0.0259,-0.0153,-0.0194,-0.0179,-0.0116,-0.0094,-0.0083,-0.0064,0.0,0.0012,-0.0031,0.0062,0.0073,0.0103,0.0098,0.0124,0.0127,0.0183,0.0182,0.0181,0.0121,0,0,0,0,0,0,-0.0274,-0.026,-0.0257,-0.0194,-0.0177,-0.0132,-0.0094,-0.0081,-0.0059,-0.0053,0.001,0.0021,0.0063,0.0097,0.0106,0.0103,0.013,0.0184,0.0182,0.0181,0.0124,0.0119,0.0114,0,0,0,0,0,-0.0279,-0.0278,-0.0258,-0.0246,-0.0173,-0.0132,-0.0122,-0.0075,-0.0059,-0.0055,-0.0014,0.0019,0.0096,0.0099,0.0111,0.0108,0.0184,0.0183,0.0181,0.0126,0.012,0.0114,0,0,0,0,0,0,-0.0343,-0.0269,-0.0246,-0.0224,-0.0185,-0.0121,-0.0114,-0.0084,-0.0048,-0.0044,0.0014,0.0028,0.0052,0.0083,0.0085,0.012,0.0144,0.0145,0.0099,0.0093,0.0088,0.008,0.0133,0,0,0,0,0,-0.0354,-0.0329,-0.0265,-0.0253,-0.0234,-0.0178,-0.0159,-0.0126,-0.0082,-0.0065,-0.0021,0.002,0.0054,0.0075,0.011,0.0129,0.0144,0.0133,0.0128,0.0123,0.0123,0.0137,0.0133,0.0176,0.0176,0.0176,0,0,-0.0378,-0.0335,-0.0322,-0.0264,-0.023,-0.0204,-0.0164,-0.0139,-0.0118,-0.0061,-0.003,0.0003,0.0054,0.0078,0.0092,0.0105,0.0115,0.0122,0.0117,0.012,0.0135,0.0131,0.0127,0.0175,0.0175,0.0176,0,0,-0.0408,-0.0373,-0.0358,-0.0325,-0.0274,-0.0236,-0.0233,-0.0173,-0.0148,-0.0117,-0.0073,-0.0047,0.0009,0.0044,0.0069,0.0053,0.0085,0.0063,0.0036,0.0048,0.0045,0.0042,0.0037,0.0034,0.0063,0.0062,0.0062,0,-0.0444,-0.0404,-0.0354,-0.0331,-0.0306,-0.0254,-0.0238,-0.0207,-0.0147,-0.0131,-0.0117,-0.0044,-0.0006,0.0028,0.0024,0.0042,0.0049,0.0056,0.0041,0.0039,0.0037,0.0033,0.0031,0.0059,0.006,0.006,0.006,0,-0.045,-0.0422,-0.0416,-0.0361,-0.0335,-0.0316,-0.0262,-0.0242,-0.0211,-0.0175,-0.0143,-0.0096,-0.005,-0.004,-0.0009,-0.0001,0.0006,0.003,0.0055,0.0029,0.0026,0.0025,0.0055,0.0056,0.0057,0.0058,0,0,-0.0517,-0.0434,-0.0433,-0.0406,-0.0346,-0.0323,-0.0301,-0.0257,-0.0241,-0.0201,-0.018,-0.0133,-0.011,-0.0082,-0.0046,-0.0036,-0.005,-0.0012,-0.001,-0.0021,-0.0038,-0.0056,-0.0059,-0.0029,-0.0029,-0.0029,-0.0042,0,-0.0538,-0.0496,-0.045,-0.0423,-0.0397,-0.0346,-0.0326,-0.0286,-0.0252,-0.0223,-0.0184,-0.0151,-0.0124,-0.0107,-0.0094,-0.0052,-0.0053,-0.005,-0.0007,-0.0006,-0.0022,-0.0061,-0.008,-0.0095,-0.0043,-0.0043,-0.0043,0,-0.0556,-0.0519,-0.049,-0.0432,-0.0419,-0.0402,-0.0358,-0.0332,-0.0285,-0.026,-0.0228,-0.0191,-0.0163,-0.0141,-0.0101,-0.01,-0.008,-0.0056,-0.0055,-0.0049,-0.0026,-0.0055,-0.0098,-0.0101,-0.0044,-0.0044,-0.0044,0,-0.0608,-0.0551,-0.0526,-0.0505,-0.0436,-0.0425,-0.0396,-0.0348,-0.0325,-0.0286,-0.0269,-0.0228,-0.0205,-0.0172,-0.0124,-0.0112,-0.0089,-0.0063,-0.0067,-0.0068,-0.0064,-0.0065,-0.0104,-0.0052,-0.0052,-0.0051,-0.0051,0,-0.0635,-0.0619,-0.0548,-0.0533,-0.0513,-0.046,-0.0442,-0.0407,-0.0365,-0.0342,-0.0295,-0.0273,-0.0211,-0.0181,-0.0143,-0.0116,-0.0105,-0.0084,-0.0074,-0.0088,-0.0091,-0.0074,-0.0071,-0.0052,-0.0052,-0.0052,-0.0052,0,-0.069,-0.0642,-0.0611,-0.0548,-0.0532,-0.052,-0.0465,-0.0448,-0.041,-0.0381,-0.0371,-0.0311,-0.0274,-0.0223,-0.0169,-0.0143,-0.0121,-0.0105,-0.0137,-0.0131,-0.0138,-0.0138,-0.0167,-0.0168,-0.0116,-0.0117,-0.0117,0,-0.071,-0.0697,-0.0633,-0.0614,-0.0586,-0.0556,-0.0532,-0.0479,-0.0456,-0.0401,-0.039,-0.0349,-0.0314,-0.0257,-0.0208,-0.0167,-0.0149,-0.0162,-0.0143,-0.0157,-0.0149,-0.015,-0.0148,-0.0167,-0.0168,-0.0169,-0.0169,0,-0.0752,-0.0729,-0.0696,-0.0655,-0.0628,-0.0593,-0.0556,-0.0542,-0.0481,-0.0457,-0.0419,-0.0392,-0.0337,-0.0297,-0.025,-0.0217,-0.0183,-0.0176,-0.0174,-0.0189,-0.0208,-0.0197,-0.015,-0.0175,-0.0175,-0.0174,-0.0174,-0.0174,-0.079,-0.0775,-0.0728,-0.0693,-0.0659,-0.0625,-0.0606,-0.0566,-0.0533,-0.0486,-0.0456,-0.0419,-0.0371,-0.0303,-0.0273,-0.0242,-0.0228,-0.0227,-0.0226,-0.0226,-0.0231,-0.0213,-0.0233,-0.0233,-0.0233,-0.0233,-0.0232,0,-0.0828,-0.0795,-0.0764,-0.0713,-0.0685,-0.0656,-0.0613,-0.0592,-0.056,-0.0519,-0.0485,-0.0441,-0.0401,-0.035,-0.0306,-0.0292,-0.0275,-0.0282,-0.0282,-0.0275,-0.0246,-0.0251,-0.0297,-0.0297,-0.0297,-0.0297,-0.0297,-0.0297,-0.0845,-0.0819,-0.079,-0.0746,-0.0712,-0.0677,-0.0655,-0.0623,-0.0589,-0.0542,-0.051,-0.0477,-0.043,-0.0383,-0.0346,-0.0331,-0.0317,-0.0329,-0.031,-0.0283,-0.0278,-0.0272,-0.0277,-0.0327,-0.0327,-0.0342,-0.0342,-0.0342]},{"header":{"parameterUnit":"m.s-1","parameterCategory":1,"la1":30.2991,"la2":30.254,"lo1":-89.0895,"lo2":-89.0444,"dy":0.0017,"dx":0.0017,"nx":28,"ny":28,"refTime":"2025-11-19T03:00:00:Z","depth":0,"parameterNumber":3,"parameterNumberName":"V-component_of_WINDS"},"data":[0,0,0,0,0,0,0,0,0,0,0,0,0,0,0,0,0,0,0,0,0,0,0,0,0,0,0,0,0,0,0,0,0,0,0,0,0,0,0,0,0,0,0,0,0,0,0,0,0,0,0,0,0,0,0,0,0,0,0.6897,0.6897,0,0.6851,0.6851,0.685,0.6838,0.6838,0.6838,0.6839,0.6787,0.6786,0.6784,0,0,0,0,0,0,0,0,0,0,0,0,0,0.6971,0.6969,0.6897,0.6897,0.6896,0.6851,0.6851,0.685,0.6838,0.6838,0.6838,0.6839,0.6788,0.6786,0.6784,0,0,0,0,0,0,0,0,0,0,0,0,0,0.6933,0.6969,0.6897,0.6885,0.6883,0.6851,0.6851,0.685,0.6838,0.6838,0.6839,0.6839,0.6789,0.6786,0.6784,0.676,0,0,0.6776,0.6775,0,0,0,0,0,0,0,0,0.6935,0.693,0.6887,0.6886,0.6884,0.6851,0.6858,0.682,0.6838,0.6855,0.6839,0.6839,0.6808,0.6804,0.6794,0.6758,0.6756,0.6776,0.6775,0.6774,0.6773,0,0,0,0,0,0,0,0.6938,0.6932,0.6879,0.6887,0.6884,0.688,0.6875,0.685,0.6829,0.6853,0.6852,0.6847,0.6807,0.6797,0.6793,0.6755,0.6776,0.6774,0.6773,0.6772,0.6695,0.6695,0,0,0,0,0,0,0.6943,0.6934,0.688,0.6878,0.6911,0.6878,0.6873,0.6861,0.683,0.6825,0.6847,0.6847,0.6801,0.6796,0.6791,0.676,0.6774,0.6771,0.677,0.6696,0.6695,0.6694,0,0,0,0,0,0,0.6945,0.6938,0.6882,0.6906,0.6898,0.6877,0.6863,0.686,0.6849,0.6825,0.6821,0.684,0.6801,0.6795,0.6768,0.6758,0.677,0.6768,0.6696,0.6696,0.6695,0.6699,0,0,0,0,0,0,0.6947,0.6939,0.6931,0.6906,0.6897,0.6861,0.6863,0.6858,0.6846,0.6845,0.6818,0.6813,0.6801,0.6772,0.6766,0.6755,0.6766,0.6697,0.6696,0.6695,0.67,0.6698,0.6697,0,0,0,0,0,0.695,0.6933,0.6931,0.6924,0.6887,0.6861,0.6856,0.6842,0.6845,0.6836,0.682,0.6814,0.6761,0.6769,0.6762,0.6751,0.6698,0.6696,0.6695,0.67,0.6699,0.6697,0,0,0,0,0,0,0.6957,0.693,0.6926,0.6902,0.6884,0.6859,0.6847,0.6841,0.6821,0.6821,0.6804,0.6798,0.6772,0.6759,0.6769,0.6726,0.6729,0.6726,0.6735,0.6734,0.6733,0.6736,0.6764,0,0,0,0,0,0.6956,0.6938,0.6915,0.6896,0.6887,0.6868,0.6857,0.6848,0.6828,0.682,0.6802,0.6782,0.676,0.6746,0.6725,0.6698,0.6691,0.6687,0.6686,0.6685,0.6682,0.6665,0.6663,0.669,0.669,0.669,0,0,0.6953,0.6936,0.6926,0.6897,0.6882,0.6862,0.6862,0.6842,0.6827,0.6816,0.679,0.6777,0.6753,0.6725,0.6712,0.6713,0.6673,0.6683,0.6683,0.668,0.6664,0.6661,0.6659,0.6689,0.669,0.669,0,0,0.6938,0.6924,0.6906,0.6891,0.6868,0.6856,0.6852,0.6828,0.6818,0.6792,0.6784,0.6765,0.6729,0.6712,0.6698,0.6676,0.667,0.667,0.6664,0.6647,0.6645,0.6643,0.6634,0.6631,0.6668,0.6668,0.6668,0,0.6936,0.6909,0.6896,0.6877,0.6863,0.6855,0.6835,0.6821,0.6792,0.6782,0.6784,0.6738,0.6721,0.6689,0.6684,0.6674,0.6667,0.6672,0.6647,0.6644,0.6642,0.6633,0.663,0.6668,0.6668,0.6668,0.6668,0,0.6907,0.6888,0.6876,0.685,0.6835,0.6816,0.6799,0.6786,0.6778,0.6765,0.6738,0.6718,0.6692,0.6684,0.6676,0.665,0.6651,0.665,0.6653,0.664,0.6631,0.6628,0.6668,0.6668,0.6668,0.6668,0,0,0.6895,0.6863,0.6858,0.6846,0.682,0.6804,0.6784,0.676,0.6748,0.6728,0.6709,0.6679,0.6677,0.6662,0.6652,0.6638,0.662,0.6639,0.6638,0.6635,0.6589,0.6589,0.6585,0.6617,0.6616,0.6615,0.659,0,0.6875,0.684,0.6828,0.6798,0.6779,0.677,0.6752,0.6733,0.6721,0.6702,0.6687,0.6665,0.6666,0.6657,0.6642,0.6626,0.6611,0.6628,0.6597,0.6596,0.6602,0.6581,0.6581,0.6559,0.6587,0.6586,0.6586,0,0.6848,0.6829,0.6797,0.6774,0.6765,0.6749,0.6726,0.6708,0.6687,0.6678,0.6662,0.6653,0.6629,0.6634,0.6601,0.6612,0.6599,0.6589,0.6588,0.6583,0.6589,0.6574,0.6551,0.6547,0.6581,0.6581,0.6582,0,0.684,0.6807,0.6783,0.6773,0.6745,0.6734,0.6722,0.6701,0.6687,0.6666,0.6656,0.6632,0.6619,0.66,0.6584,0.659,0.6551,0.6556,0.6542,0.6543,0.6533,0.6534,0.6506,0.6527,0.6528,0.6528,0.6528,0,0.6819,0.6799,0.6779,0.6765,0.6742,0.6728,0.6706,0.6692,0.6674,0.6655,0.6646,0.6628,0.6609,0.6589,0.6576,0.6549,0.6544,0.6535,0.6532,0.6535,0.6536,0.6525,0.6526,0.6527,0.6527,0.6527,0.6527,0,0.6806,0.6792,0.6765,0.6742,0.6735,0.6719,0.6698,0.6682,0.667,0.6646,0.664,0.6619,0.6594,0.6577,0.6545,0.6537,0.6507,0.6505,0.6515,0.6513,0.65,0.6501,0.6463,0.6457,0.6484,0.6483,0.6483,0,0.6793,0.6778,0.6752,0.674,0.6728,0.6708,0.6694,0.6679,0.6665,0.6639,0.6626,0.6601,0.658,0.6541,0.6522,0.6497,0.6493,0.6481,0.6489,0.6492,0.649,0.6491,0.6489,0.648,0.6479,0.6479,0.6479,0,0.677,0.6764,0.6745,0.6723,0.6707,0.6688,0.667,0.666,0.6642,0.6625,0.6601,0.6585,0.6552,0.6527,0.65,0.6486,0.6478,0.6477,0.6472,0.6475,0.6481,0.6476,0.651,0.6478,0.6478,0.6478,0.6478,0.6478,0.6755,0.6741,0.6721,0.67,0.6685,0.6667,0.6652,0.6637,0.6617,0.659,0.6583,0.6556,0.6534,0.6498,0.6483,0.6461,0.6461,0.6455,0.6453,0.6451,0.645,0.6486,0.6456,0.6456,0.6456,0.6456,0.6456,0,0.6731,0.6718,0.6699,0.6673,0.6656,0.6653,0.6632,0.6617,0.6595,0.6575,0.6555,0.6526,0.6501,0.6481,0.6454,0.6441,0.6437,0.6434,0.6434,0.6431,0.6452,0.6458,0.6438,0.6438,0.6438,0.6438,0.6438,0.6438,0.6716,0.6692,0.6683,0.665,0.6637,0.6612,0.66,0.6584,0.6568,0.6536,0.6516,0.6503,0.6483,0.6455,0.6431,0.6426,0.6416,0.6414,0.6407,0.6427,0.6429,0.6431,0.6437,0.6412,0.6412,0.6387,0.6387,0.6387]}]]